New Orleans, LA

10:12 PM CDT on September 18, 2019 (GMT -0500)
New Orleans International

Weather History for KMSY - August, 2019

Change the Weather History Date:

Sunday, August 25, 2019

  Actual Average Record
Temperature  
Mean Temperature 82 °F -  
Max Temperature 86 °F 90 °F 97 °F (1980)
Min Temperature 77 °F 72 °F 65 °F (1966)
Cooling Degree Days 16    
Growing Degree Days 32 (Base 50)    
Moisture  
Dew Point 74 °F    
Average Humidity 81    
Maximum Humidity 90    
Minimum Humidity 68    
Precipitation  
Precipitation 0.04 in - - ()
Sea Level Pressure  
Sea Level Pressure 29.94 in    
Wind  
Wind Speed 6 mph (South)    
Max Wind Speed 22 mph    
Max Gust Speed 28 mph    
Visibility 10 miles    
Events Rain    
Averages and records for this station are not official NWS values.
T = Trace of Precipitation, MM = Missing Value Source: NWS Daily Summary

Daily Weather History Graph

Daily Weather History Graph

Search for Another Location

Airport or City:

Astronomy

Aug. 25, 2019 Rise Set
Actual Time 6:34 AM CDT 7:31 PM CDT
Civil Twilight 6:09 AM CDT 7:56 PM CDT
Nautical Twilight 5:40 AM CDT 8:25 PM CDT
Astronomical Twilight 5:10 AM CDT 8:55 PM CDT
Moon 1:21 AM CDT (8/25) 3:38 PM CDT (8/25)
Length of Visible Light 13h 46m
Length of Day
12h 57m
Waning Crescent, 29% of the Moon is Illuminated
Aug 25
Waning Crescent
Aug 30
New
Sep 5
First Quarter
Sep 13
Full
Sep 21
Last Quarter

Hourly Weather History & Observations

Time (CDT) Temp. Heat Index Dew Point Humidity Pressure Visibility Wind Dir Wind Speed Gust Speed Precip Events Conditions
12:53 AM 81.0 °F 86.2 °F 73.9 °F 79% 29.97 in 10.0 mi ENE 3.5 mph - N/A   Overcast
1:53 AM 80.1 °F 84.2 °F 73.0 °F 79% 29.96 in 10.0 mi Calm Calm - N/A   Mostly Cloudy
2:53 AM 80.1 °F 84.5 °F 73.9 °F 81% 29.95 in 10.0 mi Calm Calm - N/A   Overcast
3:53 AM 79.0 °F - 73.9 °F 84% 29.94 in 10.0 mi Calm Calm - N/A   Mostly Cloudy
4:53 AM 77.0 °F - 73.0 °F 88% 29.94 in 10.0 mi West 5.8 mph - N/A   Overcast
5:53 AM 77.0 °F - 73.0 °F 88% 29.95 in 10.0 mi South 6.9 mph - N/A   Mostly Cloudy
6:53 AM 77.0 °F - 73.0 °F 88% 29.94 in 10.0 mi SE 5.8 mph - N/A   Mostly Cloudy
7:53 AM 78.1 °F - 73.0 °F 84% 29.95 in 10.0 mi ESE 6.9 mph - N/A   Mostly Cloudy
8:53 AM 80.1 °F 84.5 °F 73.9 °F 81% 29.96 in 10.0 mi SE 4.6 mph - 0.00 in   Mostly Cloudy
9:53 AM 81.0 °F 86.2 °F 73.9 °F 79% 29.98 in 10.0 mi SSE 6.9 mph - 0.00 in Rain Light Rain
10:53 AM 82.9 °F 90.2 °F 75.0 °F 77% 29.98 in 10.0 mi South 10.4 mph - 0.00 in   Mostly Cloudy
11:53 AM 82.9 °F 89.4 °F 73.9 °F 74% 29.98 in 10.0 mi SSW 8.1 mph - N/A   Mostly Cloudy
12:53 PM 82.9 °F 89.4 °F 73.9 °F 74% 29.97 in 10.0 mi SSW 9.2 mph - N/A   Overcast
1:53 PM 84.0 °F 91.2 °F 73.9 °F 72% 29.94 in 10.0 mi SW 5.8 mph - 0.00 in   Overcast
2:53 PM 84.9 °F 93.3 °F 75.0 °F 72% 29.92 in 10.0 mi SSE 8.1 mph - N/A   Overcast
3:53 PM 84.9 °F 92.1 °F 73.9 °F 69% 29.90 in 10.0 mi South 9.2 mph - N/A   Overcast
4:39 PM 82.9 °F 88.8 °F 73.0 °F 72% 29.89 in 6.0 mi South 21.9 mph 27.6 mph N/A   Haze
4:53 PM 77.0 °F - 72.0 °F 84% 29.90 in 5.0 mi WSW 12.7 mph 21.9 mph 0.03 in Rain Rain
5:53 PM 78.1 °F - 73.9 °F 87% 29.90 in 10.0 mi SW 4.6 mph - 0.01 in Rain Light Rain
6:53 PM 79.0 °F - 75.0 °F 88% 29.89 in 10.0 mi South 9.2 mph - 0.00 in Rain Light Rain
7:53 PM 78.1 °F - 73.0 °F 84% 29.89 in 10.0 mi South 5.8 mph - 0.00 in   Overcast
8:53 PM 78.1 °F - 73.9 °F 87% 29.91 in 10.0 mi South 8.1 mph - 0.00 in Rain Light Rain
9:53 PM 79.0 °F - 75.0 °F 88% 29.92 in 10.0 mi South 5.8 mph - 0.00 in Rain Light Rain
10:53 PM 80.1 °F 85.1 °F 75.0 °F 85% 29.92 in 10.0 mi South 5.8 mph - 0.00 in   Overcast
11:53 PM 79.0 °F - 75.9 °F 90% 29.91 in 9.0 mi SSE 6.9 mph - 0.00 in Rain Light Rain